Change the Weather History Date:

Thursday, November 15, 2012

  Actual Average Record
Temperature  
Mean Temperature 48 °F -  
Max Temperature 52 °F 62 °F 79 °F (2011)
Min Temperature 44 °F 41 °F 28 °F (2014)
Degree Days  
Heating Degree Days 17    
Moisture  
Dew Point 43 °F    
Average Humidity 79    
Maximum Humidity 89    
Minimum Humidity 71    
Precipitation  
Precipitation 0.29 in - - ()
Sea Level Pressure  
Sea Level Pressure 30.24 in    
Wind  
Wind Speed 9 mph (North)    
Max Wind Speed 14 mph    
Max Gust Speed 21 mph    
Visibility 10 miles    
Events Rain    
Averages and records for this station are not official NWS values.
T = Trace of Precipitation, MM = Missing Value Source: NWS Daily Summary

Daily Weather History Graph

Daily Weather History Graph

Search for Another Location

Airport or City:

Trip Planner

Search our weather history database for the weather conditions in past years. The results will help you decide how hot, cold, wet, or windy it might be!

Date:

Astronomy

Nov. 15, 2012 Rise Set
Actual Time 6:44 AM EST 5:04 PM EST
Civil Twilight 6:17 AM EST 5:31 PM EST
Nautical Twilight 5:46 AM EST 6:01 PM EST
Astronomical Twilight 5:16 AM EST 6:31 PM EST
Moon 8:34 AM EST (11/15) 6:56 PM EST (11/15)
Length of Visible Light 11h 14m
Length of Day
10h 20m
Waxing Crescent, 5% of the Moon is Illuminated
Nov 15
Waxing Crescent
Nov 20
First Quarter
Nov 28
Full
Dec 6
Last Quarter
Dec 13
New

Hourly Weather History & Observations

Time (EST) Temp. Windchill Dew Point Humidity Pressure Visibility Wind Dir Wind Speed Gust Speed Precip Events Conditions
12:56 AM 46.0 °F 41.9 °F 37.0 °F 71% 30.33 in 10.0 mi North 8.1 mph - N/A   Overcast
1:56 AM 46.0 °F 41.0 °F 37.0 °F 71% 30.30 in 10.0 mi North 10.4 mph - N/A   Overcast
2:56 AM 46.0 °F 41.4 °F 37.0 °F 71% 30.30 in 10.0 mi North 9.2 mph - N/A   Overcast
3:56 AM 45.0 °F 40.1 °F 37.0 °F 74% 30.29 in 10.0 mi North 9.2 mph - N/A   Overcast
4:56 AM 45.0 °F 39.7 °F 36.0 °F 71% 30.28 in 10.0 mi North 10.4 mph - 0.00 in Rain Light Rain
5:56 AM 44.1 °F 38.6 °F 39.0 °F 82% 30.26 in 10.0 mi North 10.4 mph - 0.07 in   Overcast
6:56 AM 44.1 °F 39.0 °F 37.9 °F 79% 30.27 in 10.0 mi North 9.2 mph - N/A   Overcast
7:56 AM 44.1 °F 39.5 °F 37.9 °F 79% 30.29 in 10.0 mi NNW 8.1 mph - N/A   Overcast
8:56 AM 45.0 °F 40.1 °F 39.0 °F 80% 30.27 in 10.0 mi NNE 9.2 mph - 0.00 in Rain Light Rain
9:56 AM 46.0 °F 41.9 °F 41.0 °F 83% 30.26 in 10.0 mi North 8.1 mph - 0.01 in Rain Light Rain
10:43 AM 46.4 °F 41.5 °F 42.8 °F 87% 30.26 in 10.0 mi NNW 10.4 mph - 0.00 in   Mostly Cloudy
10:56 AM 46.9 °F - 42.1 °F 83% 30.26 in 10.0 mi North 9.2 mph - 0.00 in Rain Light Rain
11:56 AM 50.0 °F - 43.0 °F 77% 30.24 in 10.0 mi NNW 11.5 mph - 0.00 in   Mostly Cloudy
12:09 PM 50.0 °F - 42.8 °F 76% 30.23 in 10.0 mi NNW 8.1 mph - 0.00 in Rain Light Rain
12:23 PM 51.8 °F - 42.8 °F 71% 30.22 in 10.0 mi North 9.2 mph - 0.00 in   Mostly Cloudy
12:56 PM 52.0 °F - 44.1 °F 74% 30.24 in 10.0 mi NNW 10.4 mph - 0.00 in   Overcast
1:56 PM 52.0 °F - 44.1 °F 74% 30.21 in 10.0 mi NNW 12.7 mph - N/A   Mostly Cloudy
2:05 PM 51.8 °F - 44.6 °F 76% 30.21 in 10.0 mi NNW 13.8 mph - N/A   Mostly Cloudy
2:56 PM 51.1 °F - 43.0 °F 74% 30.22 in 10.0 mi NW 12.7 mph - N/A   Overcast
3:56 PM 50.0 °F - 41.0 °F 71% 30.22 in 10.0 mi North 11.5 mph - N/A   Overcast
4:56 PM 50.0 °F - 43.0 °F 77% 30.21 in 10.0 mi North 10.4 mph 20.7 mph 0.01 in Rain Light Rain
5:56 PM 48.9 °F - 44.1 °F 83% 30.23 in 5.0 mi North 9.2 mph - 0.08 in Rain Rain
6:56 PM 48.9 °F - 45.0 °F 86% 30.22 in 7.0 mi NNE 8.1 mph - 0.06 in Rain Light Rain
7:53 PM 50.0 °F - 46.4 °F 87% 30.20 in 10.0 mi NE 10.4 mph - 0.03 in Rain Light Rain
7:56 PM 51.1 °F - 46.9 °F 86% 30.20 in 10.0 mi NE 11.5 mph - 0.03 in Rain Light Rain
8:29 PM 51.8 °F - 46.4 °F 82% 30.20 in 10.0 mi NNE 8.1 mph - 0.00 in Rain Light Rain
8:47 PM 51.8 °F - 46.4 °F 82% 30.20 in 10.0 mi NNE 8.1 mph - 0.00 in Rain Light Rain
8:56 PM 51.1 °F - 46.9 °F 86% 30.21 in 10.0 mi NNE 8.1 mph - 0.00 in Rain Light Rain
9:29 PM 51.8 °F - 46.4 °F 82% 30.21 in 7.0 mi NNW 5.8 mph - 0.02 in Rain Light Rain
9:56 PM 51.1 °F - 46.9 °F 86% 30.21 in 10.0 mi NNW 5.8 mph - 0.03 in Rain Light Rain
10:20 PM 51.8 °F - 46.4 °F 82% 30.21 in 10.0 mi North 5.8 mph - 0.00 in   Overcast
10:56 PM 51.1 °F - 46.9 °F 86% 30.22 in 10.0 mi North 6.9 mph - 0.00 in Rain Light Rain
11:44 PM 51.8 °F - 46.4 °F 82% 30.21 in 10.0 mi North 9.2 mph - 0.00 in   Overcast
11:56 PM 50.0 °F - 46.9 °F 89% 30.22 in 10.0 mi North 10.4 mph - 0.00 in   Overcast